This is the latest recevied weather packets stored in our database for station/object DB8NZ-22. If no packets are shown the sender has not sent any weather packets the latest 10 day(s).
| Time | Temp. | Humidity | Pressure | Rain* | Wind** | Luminosity | Snow |
|---|---|---|---|---|---|---|---|
| 1777549093 | 21.11° C | 17% | 1029 hPa | - | - | - | - |
| 1777548193 | 20° C | 17% | 1029 hPa | - | - | - | - |
| 1777547293 | 19.44° C | 18% | 1029.2 hPa | - | - | - | - |
| 1777546393 | 18.89° C | 19% | 1029.1 hPa | - | - | - | - |
| 1777545493 | 18.33° C | 20% | 1029.5 hPa | - | - | - | - |
| 1777544593 | 18.33° C | 21% | 1029.7 hPa | - | - | - | - |
| 1777543693 | 17.78° C | 22% | 1029.8 hPa | - | - | - | - |
| 1777543190 | 17.22° C | 23% | 1029.8 hPa | - | - | - | - |
| 1777542289 | 16.11° C | 23% | 1029.8 hPa | - | - | - | - |
| 1777541388 | 15.56° C | 23% | 1029.9 hPa | - | - | - | - |
| 1777540487 | 15° C | 24% | 1030 hPa | - | - | - | - |
| 1777539586 | 14.44° C | 25% | 1030.1 hPa | - | - | - | - |
| 1777538685 | 13.89° C | 27% | 1030.2 hPa | - | - | - | - |
| 1777537785 | 12.78° C | 28% | 1030.4 hPa | - | - | - | - |
| 1777536884 | 12.78° C | 28% | 1030.5 hPa | - | - | - | - |
| 1777535984 | 12.22° C | 28% | 1030.4 hPa | - | - | - | - |
| 1777535084 | 11.67° C | 28% | 1030.5 hPa | - | - | - | - |
| 1777534184 | 11.11° C | 29% | 1030.4 hPa | - | - | - | - |
| 1777533283 | 10.56° C | 30% | 1030.5 hPa | - | - | - | - |
| 1777532383 | 10° C | 31% | 1030.5 hPa | - | - | - | - |
| 1777531483 | 10° C | 32% | 1030.5 hPa | - | - | - | - |
| 1777530583 | 9.44° C | 34% | 1030.4 hPa | - | - | - | - |
| 1777529683 | 8.33° C | 34% | 1030.3 hPa | - | - | - | - |
| 1777528783 | 8.33° C | 35% | 1030.2 hPa | - | - | - | - |
| 1777527883 | 7.78° C | 37% | 1030.3 hPa | - | - | - | - |
* Rain since midnight (hover to see other rain measurements)
** Current wind speed in m/s (hover to see current wind gust speed)